Tracking 25195 objects as of 20-Jan-2022
HD Live streaming from Space Station
objects crossing your sky now

STARLINK-1751

Track STARLINK-1751 now!
10-day predictions
STARLINK-1751 is classified as:


NORAD ID: 46378
Int'l Code: 2020-062BF
Perigee: 313.2 km
Apogee: 316.0 km
Inclination: 53.0 °
Period: 90.7 minutes
Semi major axis: 6685 km
RCS: Unknown
Launch date: September 3, 2020
Source: United States (US)
Launch site: AIR FORCE EASTERN TEST RANGE (AFETR)
aabbcc
Your satellite tracking list
Your tracking list is empty




NASA's NSSDC Master Catalog

Two Line Element Set (TLE):
1 46378U 20062BF  22019.49767573  .00331809  00000-0  11448-2 0  9994
2 46378  53.0483 244.6591 0002092 127.2920 232.8295 15.88158557 77682
Source of the keplerian elements: AFSPC